Tracking 29892 objects as of 21-Nov-2024
HD Live streaming from Space Station
objects crossing your sky now

STARLINK-32356

Track STARLINK-32356 now!
10-day predictions
STARLINK-32356 is classified as:


NORAD ID: 60921
Int'l Code: 2024-154U
Perigee: 481.3 km
Apogee: 483.3 km
Inclination: 53.2 °
Period: 94.1 minutes
Semi major axis: 6853 km
RCS: Unknown
Launch date: August 31, 2024
Source: United States (US)
Launch site: AIR FORCE EASTERN TEST RANGE (AFETR)
Your satellite tracking list
Your tracking list is empty




NASA's NSSDC Master Catalog

Two Line Element Set (TLE):
1 60921U 24154U   24325.42127683  .00001439  00000-0  60684-4 0  9998
2 60921  53.1603 326.6806 0001450  96.3281 263.7885 15.30210126 13732
Source of the keplerian elements: AFSPC